Find Starlink 31136

NORAD ID: 58772 Int'l Des: 2024-011 Owner: SPXS Country: US Constellation: starlink operational
LEOCIRCULAR

Live Position

Loading 3D Globe...

About Starlink 31136

Description loading...

Upcoming Passes

Passes for default location (London). Set your location on the main map for personalized predictions.

Altitude History

Loading altitude history...

Two-Line Element Set

1 58772U 24011H 26123.24946509 .00000921 00000-0 43223-4 0 9990
2 58772 53.1602 120.2469 0001320 97.0380 263.0771 15.30194276128617
Epoch: May 3, 2026 • Age: 21 hours

Current Status

Altitude 476.2 km
Velocity 7.63 km/s
Sub-Earth Point 27.79°N, 120.4°W
Launch Date Jan 14, 2024
Age 2.2 years
Type internet

Technical Details

Classification Payload
Mass 730.00 kg
Dry Mass 700.00 kg
Total Mass 730.00 kg
Length 0.30 m
Diameter 4.10 m
Span 29.00 m
Shape Box + pan
Manufacturer SPXS
Bus Type Starlink V2M
Phase Status In Orbit
Owner/State SPXS/US

Most Searched